When you browse on this site, cookies collect data to enhance your experience and personalize the content and advertising you see.
Visit our Privacy Policy to learn more. By continuing to use the site, you agree to this use of cookies and data.
  • In Hungary
  • List of Countries
  • For 7 days
  • Water Temperature
  • Weather Map
  • News
  • Weather Widgets
  • user-avatar
    Login

    Hourly Weather Ostrowek

    Today, 9 April, Thursday

    Time Temperature Precipitation Wind Pressure Humidity
    00:00 +8°C° 0 mm 2 mps 752 mmHg 59%
    01:00 +8°C° 0 mm 2 mps 751 mmHg 61%
    02:00 +7°C° 0 mm 3 mps 751 mmHg 63%
    03:00 +7°C° 0 mm 3 mps 750 mmHg 64%
    04:00 +7°C° 0 mm 3 mps 750 mmHg 66%
    05:00 +5°C° 0 mm 3 mps 749 mmHg 67%
    06:00 +7°C° 0 mm 3 mps 749 mmHg 63%
    07:00 +8°C° 0 mm 4 mps 748 mmHg 59%
    08:00 +10°C° 0 mm 4 mps 748 mmHg 55%
    09:00 +12°C° 0 mm 4 mps 747 mmHg 53%
    10:00 +14°C° 0 mm 5 mps 747 mmHg 51%
    11:00 +16°C° 0 mm 5 mps 747 mmHg 48%
    12:00 +17°C° 0 mm 6 mps 746 mmHg 46%
    13:00 +19°C° 0 mm 6 mps 746 mmHg 43%
    14:00 +20°C° 0 mm 7 mps 745 mmHg 39%
    15:00 +17°C° 0.3 mm 7 mps 745 mmHg 45%
    16:00 +16°C° 0.3 mm 7 mps 745 mmHg 52%
    17:00 +15°C° 0.3 mm 7 mps 745 mmHg 59%
    18:00 +13°C° 0 mm 6 mps 745 mmHg 63%
    19:00 +10°C° 0 mm 5 mps 746 mmHg 67%
    20:00 +8°C° 0 mm 5 mps 746 mmHg 72%
    21:00 +7°C° 0 mm 5 mps 747 mmHg 73%
    22:00 +6°C° 0 mm 5 mps 747 mmHg 74%
    23:00 +5°C° 0 mm 4 mps 748 mmHg 76%

    Tomorrow, 10 April, Friday

    Time Temperature Precipitation Wind Pressure Humidity
    00:00 +4°C° 0 mm 4 mps 748 mmHg 77%
    01:00 +3°C° 0 mm 4 mps 748 mmHg 79%
    02:00 +3°C° 0 mm 4 mps 749 mmHg 80%
    03:00 +1°C° 0 mm 4 mps 749 mmHg 79%
    04:00 +2°C° 0 mm 3 mps 749 mmHg 78%
    05:00 +1°C° 0 mm 3 mps 750 mmHg 77%
    06:00 +2°C° 0 mm 3 mps 750 mmHg 69%
    07:00 +3°C° 0 mm 4 mps 751 mmHg 61%
    08:00 +4°C° 0 mm 4 mps 751 mmHg 53%
    09:00 +5°C° 0 mm 4 mps 751 mmHg 48%
    10:00 +7°C° 0 mm 4 mps 751 mmHg 44%
    11:00 +8°C° 0 mm 4 mps 752 mmHg 39%
    12:00 +8°C° 0 mm 4 mps 751 mmHg 38%
    13:00 +10°C° 0 mm 4 mps 751 mmHg 36%
    14:00 +11°C° 0 mm 4 mps 751 mmHg 35%
    15:00 +11°C° 0 mm 4 mps 751 mmHg 37%
    16:00 +10°C° 0 mm 4 mps 751 mmHg 38%
    17:00 +10°C° 0 mm 4 mps 750 mmHg 40%
    18:00 +8°C° 0 mm 4 mps 750 mmHg 46%
    19:00 +8°C° 0 mm 3 mps 750 mmHg 51%
    20:00 +6°C° 0 mm 2 mps 750 mmHg 56%
    21:00 +5°C° 0 mm 2 mps 751 mmHg 58%
    22:00 +4°C° 0 mm 2 mps 751 mmHg 60%
    23:00 +4°C° 0 mm 2 mps 751 mmHg 61%

    Day after tomorrow, 11 April, Saturday

    Time Temperature Precipitation Wind Pressure Humidity
    00:00 +3°C° 0 mm 2 mps 751 mmHg 63%
    01:00 +2°C° 0 mm 2 mps 751 mmHg 65%
    02:00 +2°C° 0 mm 2 mps 752 mmHg 67%
    03:00 +1°C° 0 mm 2 mps 752 mmHg 72%
    04:00 +1°C° 0 mm 2 mps 752 mmHg 77%
    05:00 -1°C° 0 mm 2 mps 752 mmHg 82%
    06:00 +1°C° 0 mm 2 mps 753 mmHg 75%
    07:00 +3°C° 0 mm 2 mps 753 mmHg 67%
    08:00 +3°C° 0 mm 3 mps 753 mmHg 60%
    09:00 +4°C° 0 mm 3 mps 754 mmHg 54%
    10:00 +5°C° 0 mm 3 mps 754 mmHg 48%
    11:00 +8°C° 0 mm 3 mps 754 mmHg 43%
    12:00 +8°C° 0 mm 3 mps 754 mmHg 39%
    13:00 +9°C° 0 mm 3 mps 754 mmHg 36%
    14:00 +10°C° 0 mm 3 mps 754 mmHg 33%
    15:00 +10°C° 0 mm 3 mps 754 mmHg 35%
    16:00 +9°C° 0 mm 3 mps 754 mmHg 36%
    17:00 +9°C° 0 mm 3 mps 754 mmHg 37%
    18:00 +8°C° 0 mm 3 mps 754 mmHg 42%
    19:00 +7°C° 0 mm 2 mps 754 mmHg 47%
    20:00 +5°C° 0 mm 2 mps 754 mmHg 53%
    21:00 +5°C° 0 mm 2 mps 754 mmHg 55%
    22:00 +4°C° 0 mm 2 mps 754 mmHg 57%
    23:00 +4°C° 0 mm 2 mps 754 mmHg 60%

    12 April, Sunday

    Time Temperature Precipitation Wind Pressure Humidity
    00:00 +3°C° 0 mm 2 mps 754 mmHg 61%
    01:00 +3°C° 0 mm 2 mps 754 mmHg 62%
    02:00 +2°C° 0 mm 2 mps 754 mmHg 63%
    03:00 +1°C° 0 mm 3 mps 754 mmHg 63%
    04:00 +1°C° 0 mm 3 mps 753 mmHg 63%
    05:00 +1°C° 0 mm 3 mps 753 mmHg 63%
    06:00 +2°C° 0 mm 3 mps 753 mmHg 60%
    07:00 +3°C° 0 mm 4 mps 752 mmHg 57%
    08:00 +3°C° 0 mm 5 mps 752 mmHg 54%
    09:00 +6°C° 0 mm 5 mps 752 mmHg 50%
    10:00 +7°C° 0 mm 5 mps 751 mmHg 47%
    11:00 +8°C° 0 mm 5 mps 751 mmHg 44%
    12:00 +9°C° 0 mm 5 mps 750 mmHg 43%
    13:00 +10°C° 0 mm 5 mps 750 mmHg 43%
    14:00 +12°C° 0 mm 5 mps 749 mmHg 42%
    15:00 +12°C° 0 mm 5 mps 748 mmHg 44%
    16:00 +13°C° 0 mm 5 mps 748 mmHg 46%
    17:00 +13°C° 0 mm 4 mps 747 mmHg 48%
    18:00 +12°C° 0 mm 4 mps 746 mmHg 53%
    19:00 +10°C° 0 mm 4 mps 746 mmHg 58%
    20:00 +8°C° 0 mm 4 mps 745 mmHg 62%
    21:00 +8°C° 0 mm 4 mps 745 mmHg 62%
    22:00 +7°C° 0 mm 4 mps 744 mmHg 62%
    23:00 +7°C° 0 mm 4 mps 744 mmHg 62%

    13 April, Monday

    Time Temperature Precipitation Wind Pressure Humidity
    00:00 +7°C° 0 mm 4 mps 743 mmHg 62%
    01:00 +6°C° 0 mm 4 mps 743 mmHg 63%
    02:00 +6°C° 0 mm 4 mps 742 mmHg 63%
    03:00 +6°C° 0 mm 4 mps 742 mmHg 66%
    04:00 +5°C° 0 mm 4 mps 741 mmHg 69%
    05:00 +5°C° 0 mm 4 mps 741 mmHg 72%
    06:00 +6°C° 0 mm 4 mps 740 mmHg 71%
    07:00 +8°C° 0 mm 4 mps 740 mmHg 70%
    08:00 +9°C° 0 mm 5 mps 739 mmHg 69%
    09:00 +12°C° 0 mm 5 mps 739 mmHg 65%
    10:00 +14°C° 0 mm 6 mps 738 mmHg 61%
    11:00 +16°C° 0 mm 7 mps 738 mmHg 57%
    12:00 +16°C° 0.4 mm 7 mps 737 mmHg 55%
    13:00 +17°C° 0.4 mm 8 mps 736 mmHg 53%
    14:00 +17°C° 0.4 mm 8 mps 735 mmHg 52%
    15:00 +16°C° 0.9 mm 8 mps 735 mmHg 57%
    16:00 +15°C° 0.9 mm 7 mps 734 mmHg 62%
    17:00 +14°C° 0.9 mm 7 mps 733 mmHg 68%
    18:00 +11°C° 0.5 mm 6 mps 734 mmHg 74%
    19:00 +9°C° 0.5 mm 6 mps 734 mmHg 81%
    20:00 +7°C° 0.5 mm 6 mps 734 mmHg 87%
    21:00 +5°C° 0.7 mm 6 mps 735 mmHg 89%
    22:00 +3°C° 0.7 mm 6 mps 735 mmHg 90%
    23:00 +1°C° 0.7 mm 6 mps 736 mmHg 91%

    14 April, Tuesday

    Time Temperature Precipitation Wind Pressure Humidity
    00:00 +1°C° 0.2 mm 6 mps 736 mmHg 87%
    01:00 -1°C° 0.2 mm 6 mps 736 mmHg 83%
    02:00 -2°C° 0.2 mm 6 mps 737 mmHg 78%
    03:00 -3°C° 0 mm 6 mps 738 mmHg 76%
    04:00 -2°C° 0 mm 5 mps 738 mmHg 73%
    05:00 -3°C° 0 mm 4 mps 739 mmHg 71%
    06:00 -2°C° 0 mm 5 mps 739 mmHg 66%
    07:00 -1°C° 0 mm 5 mps 739 mmHg 61%
    08:00 0°C° 0 mm 5 mps 740 mmHg 56%
    09:00 +1°C° 0.1 mm 6 mps 740 mmHg 53%
    10:00 +2°C° 0.1 mm 6 mps 740 mmHg 49%
    11:00 +3°C° 0.1 mm 6 mps 740 mmHg 45%
    12:00 +3°C° 0.2 mm 6 mps 740 mmHg 46%
    13:00 +3°C° 0.2 mm 7 mps 740 mmHg 46%
    14:00 +4°C° 0.2 mm 7 mps 740 mmHg 47%
    15:00 +3°C° 0.2 mm 7 mps 741 mmHg 49%
    16:00 +3°C° 0.2 mm 7 mps 741 mmHg 51%
    17:00 +2°C° 0.2 mm 7 mps 741 mmHg 53%
    18:00 0°C° 0 mm 7 mps 742 mmHg 57%
    19:00 -1°C° 0 mm 6 mps 742 mmHg 61%
    20:00 -1°C° 0 mm 5 mps 743 mmHg 65%
    21:00 -2°C° 0 mm 5 mps 743 mmHg 68%
    22:00 -2°C° 0 mm 5 mps 744 mmHg 72%
    23:00 -4°C° 0 mm 5 mps 744 mmHg 75%
    Show more